Terminal Aerodrome Forecast
Issued by NWS

Home | Current Version | Previous Version | Text Only | Print | Product List | Glossary Off
Versions: 1 2 3 4 5 6 7 8 9 10 11 12 13 14 15 16 17 18 19 20

904
FTUS43 KBIS 260322 AAA
TAFJMS
TAF AMD
KJMS 260322Z 2603/2624 04015G21KT 4SM -RA BR OVC006
     FM261700 07011KT P6SM OVC008
     FM261900 07011KT P6SM OVC015=

USA.gov is the U.S. government's official web portal to all federal, state and local government web resources and services.